Regional Weather Roundup
Issued by NWS

Home | Current Version | Previous Version | Graphics & Text | Print | Product List | Glossary On
Versions: 1 2 3 4 5 6 7 8 9 10 11 12 13 14 15 16 17 18 19 20 21 22 23 24 25 26 27 28 29 30 31 32 33 34 35 36 37 38 39 40 41 42 43 44 45 46 47 48 49 50
300
ASUS43 KLMK 120110
RWRKY
KENTUCKY REGIONAL WEATHER ROUNDUP
NATIONAL WEATHER SERVICE LOUISVILLE KY
800 PM EST MON DEC 11 2017

NOTE "FAIR" INDICATES FEW OR NO CLOUDS BELOW 12,000 FEET
WITH NO SIGNIFICANT WEATHER AND/OR OBSTRUCTIONS TO VISIBILITY.

KYZ001>023-026-027-061>063-070>075-120200-
WESTERN AND SOUTH CENTRAL KENTUCKY

CITY           SKY/WX    TMP DP  RH WIND       PRES   REMARKS
PADUCAH        PTCLDY    54  23  30 NW15G25   29.88R
HENDERSON      CLEAR     50  28  42 NW15G24   29.84R
OWENSBORO      CLEAR     51  28  41 NW22G28   29.83R
HOPKINSVILLE   PTCLDY    53  28  38 SW12      29.82R
BOWLING GREEN  CLEAR     51  31  46 SW7       29.81F
GLASGOW        CLOUDY    52  31  44 SW8G16    29.80F
$$

KYZ024-025-028>034-038-045-046-053-120200-
NORTH CENTRAL KENTUCKY

CITY           SKY/WX    TMP DP  RH WIND       PRES   REMARKS
LOUISVILLE/SDF CLOUDY    51  30  44 SW9       29.74S
LOUISVILLE/LOU PTCLDY    50  31  48 SW13      29.75S
FORT KNOX      PTCLDY    48  30  48 SW9       29.74S
$$

KYZ035>037-039>044-047>052-055>060-089>105-120200-
NORTHEAST KENTUCKY

CITY           SKY/WX    TMP DP  RH WIND       PRES   REMARKS
LEXINGTON      MOCLDY    46  30  53 S10       29.75F
COVINGTON      PTCLDY    43  30  60 S13       29.68F
FRANKFORT      PTCLDY    49  29  46 SW10      29.73F
$$

KYZ054-064>069-076>088-106>120-120200-
SOUTHEAST KENTUCKY

CITY           SKY/WX    TMP DP  RH WIND       PRES   REMARKS
JACKSON        PTCLDY    48  28  46 VRB6      29.77F
LONDON         CLOUDY    46  28  49 S5        29.81S
SOMERSET       MOCLDY    48  30  49 S3        29.83S
MIDDLESBORO    PTCLDY    50  31  49 S16       29.85F
MONTICELLO     MOCLDY    52  31  44 SW16G26   29.85R
$$





USA.gov is the U.S. government's official web portal to all federal, state and local government web resources and services.